Temperature
20 20 20 20 18 18 19 20 21 21 21 21 21 20 19 19 19 18 17 18 18 18 18 18 18 18 18 18 18 18 18 18 18 18 18 18 18 18 18 18 18 18 18 18 18 18 18 18 18
20 20 20 19 18 19 20 20 21 21 22 22 21 20 19 18 18 17 17 18 18 18 18 18 18 18 18 18 18 18 18 18 18 18 18 18 18 17 17 18 18 18 18 18 18 18 18 18 17
20 20 20 17 18 19 20 20 21 22 23 22 20 20 19 18 18 18 18 18 18 18 18 18 18 18 18 18 18 18 18 18 18 18 18 17 17 17 17 18 18 18 18 18 18 18 17 17 17
20 20 20 18 19 20 20 20 21 22 22 21 20 19 18 18 18 18 18 18 18 18 18 18 18 18 18 18 18 18 18 18 18 17 17 17 17 17 17 17 18 18 18 17 17 17 17 17 17
20 20 18 18 19 20 20 21 21 21 21 20 20 18 18 18 18 18 18 18 18 18 18 18 18 18 18 18 18 18 18 18 17 17 17 17 17 17 17 17 17 17 17 17 17 17 17 17 17
20 18 18 18 19 20 21 21 21 21 20 20 19 18 17 18 18 18 18 18 18 18 18 18 18 18 18 18 18 18 18 17 17 17 17 17 17 17 17 17 17 17 17 17 17 17 17 17 17
20 17 18 19 19 20 21 21 21 20 20 20 19 18 17 17 18 18 18 18 18 18 18 18 18 18 18 18 18 17 17 17 17 17 17 17 17 17 17 17 17 17 17 17 17 17 17 17 17
21 17 19 19 19 20 21 21 21 20 20 20 20 18 17 17 17 18 17 18 17 17 18 17 17 17 18 17 17 17 17 17 17 17 17 17 17 17 17 17 17 17 17 17 17 17 16 16 16
21 17 18 19 19 19 20 21 21 20 20 19 19 19 19 18 17 17 17 17 17 17 17 17 17 17 17 17 17 17 17 17 17 17 17 17 17 17 17 17 17 16 16 16 16 16 16 16 16
20 17 19 20 20 19 20 20 20 20 19 18 18 19 18 18 18 17 17 17 17 17 17 17 17 17 17 17 17 17 17 17 17 17 17 17 17 16 16 16 16 16 16 16 16 16 16 16 16
20 18 19 20 21 20 20 20 20 20 18 18 18 18 18 18 18 18 18 18 17 17 17 17 17 17 17 17 17 17 17 17 17 17 17 17 17 16 16 16 16 16 16 16 16 16 16 16 16
20 20 21 21 21 21 20 20 20 19 19 20 20 19 18 18 18 18 18 17 17 17 17 17 17 17 17 17 17 17 17 17 17 17 17 17 17 16 16 16 16 16 16 16 16 16 16 16 16
20 20 21 21 21 20 20 20 19 19 20 19 19 19 18 18 18 18 18 17 17 17 17 17 17 17 17 17 17 17 17 17 17 17 17 17 17 17 16 16 16 16 16 16 16 16 16 16 16
21 21 21 21 21 20 20 19 19 19 19 19 19 18 18 18 18 18 18 18 17 17 17 17 17 17 17 17 17 17 17 17 17 17 17 17 17 17 17 16 16 16 16 16 16 16 16 16 16
21 20 20 20 21 20 20 19 19 19 19 18 18 18 18 18 18 18 18 18 18 18 17 17 17 17 17 17 17 17 17 17 17 17 17 17 17 17 16 16 16 16 16 16 16 16 16 16 16
20 19 19 20 20 20 20 18 18 19 19 18 18 18 18 18 18 18 18 18 18 18 18 17 17 17 17 17 17 17 17 17 17 17 17 17 17 17 16 16 16 16 16 16 16 16 16 16 16
19 18 19 19 20 20 19 18 18 19 19 18 18 18 18 18 18 18 18 18 18 18 18 17 17 17 17 17 17 17 17 17 17 17 17 17 17 17 16 16 16 16 16 16 16 16 16 16 15
18 18 19 19 20 20 19 18 18 19 19 18 19 18 19 19 19 19 18 18 18 18 18 17 17 17 17 17 17 17 17 17 17 17 16 16 16 16 16 16 16 16 16 16 16 16 16 15 15
20 19 19 19 20 20 19 18 18 19 18 18 18 19 19 19 19 19 18 18 18 18 18 17 17 17 17 17 17 17 17 17 16 16 16 16 16 16 16 16 16 16 16 16 16 16 16 15 15
20 19 19 20 20 20 18 18 18 18 18 19 19 18 19 19 19 19 18 18 18 18 18 18 17 17 17 17 17 17 17 16 16 16 16 16 16 16 16 16 16 16 16 16 16 16 15 15 15
20 19 19 19 20 20 19 18 18 18 19 19 19 19 19 19 19 18 18 18 18 18 18 18 17 17 17 17 17 16 16 16 16 16 16 16 16 16 16 16 16 16 16 16 16 15 15 15 15
19 21 21 20 19 18 19 17 17 17 18 18 18 18 19 19 19 19 18 18 18 18 18 18 17 17 17 17 17 16 16 16 16 16 16 16 16 16 16 16 16 16 16 16 15 15 15 15 15
20 21 21 20 18 18 18 17 17 17 17 17 18 18 18 19 19 19 19 18 18 18 18 18 17 17 17 17 17 16 16 16 16 16 16 16 16 16 16 16 16 15 15 15 15 15 15 15 15
21 20 19 17 17 17 18 17 17 16 17 18 18 19 19 19 19 19 19 18 18 18 18 17 17 17 17 17 16 16 16 16 16 16 16 16 16 15 15 16 15 15 15 15 15 15 15 15 15
20 17 16 16 16 16 18 18 17 18 18 19 18 19 19 19 19 19 18 18 18 18 17 17 17 17 17 17 16 16 16 16 16 16 16 16 16 15 15 15 15 15 15 15 15 15 15 15 15
19 17 16 16 16 16 18 17 18 19 20 20 20 19 19 19 18 19 18 18 18 18 17 17 17 17 17 17 16 16 16 16 16 16 16 16 16 15 15 15 15 15 15 15 15 15 15 15 15
19 18 17 16 17 17 17 18 19 19 19 19 19 19 19 19 18 18 18 18 18 18 18 17 17 17 17 17 16 16 16 16 16 16 16 16 16 15 15 15 15 15 15 15 15 15 15 15 15
19 18 16 16 17 16 17 17 17 18 18 18 18 18 18 19 18 18 18 18 18 18 17 17 17 17 17 17 16 16 16 16 16 16 16 16 15 15 15 15 15 15 15 15 14 14 14 14 14
19 19 17 15 15 16 16 17 18 18 18 18 18 19 18 18 18 18 18 18 18 18 17 17 17 17 17 17 16 16 16 16 16 16 15 15 15 15 15 15 15 15 15 15 14 14 14 14 14
19 18 17 16 16 15 15 16 19 18 18 18 18 19 19 19 19 18 18 18 18 17 17 17 17 17 17 16 16 16 16 16 16 16 15 15 15 15 15 15 15 15 15 15 14 14 14 14 14
Wind_Speed
1 1 3 3 4 4 1 1 1 1 4 5 8 10 9 6 5 6 3 8 8 6 8 10 11 12 13 13 13 13 13 13 13 13 13 13 13 13 13 12 12 11 11 11 10 10 10 10 10
1 1 3 4 4 3 1 1 2 2 6 7 8 8 8 6 5 6 4 8 8 8 9 10 12 12 13 13 13 13 13 13 13 13 13 13 13 12 12 12 11 10 10 10 10 9 10 10 10
0 1 3 3 2 2 2 2 2 4 6 5 5 6 5 4 4 3 6 10 8 8 9 11 13 12 12 13 13 13 13 13 13 13 13 13 12 12 12 11 10 10 9 9 9 8 9 9 9
3 4 4 4 1 1 3 2 2 4 6 6 6 6 4 3 3 5 9 10 9 7 9 12 13 13 12 12 13 13 13 13 13 13 13 12 12 12 11 10 10 9 9 9 8 8 8 8 9
4 4 4 2 0 1 1 2 3 4 4 6 8 6 4 3 8 11 10 9 9 7 8 11 12 12 12 12 12 12 12 12 12 12 12 12 12 11 10 10 10 9 9 9 8 8 8 8 10
4 4 3 1 0 1 1 3 5 7 6 6 7 6 4 4 8 9 9 9 8 8 7 9 11 11 11 11 12 12 12 12 11 11 11 11 11 10 10 9 9 8 8 8 7 7 7 8 10
4 3 2 1 1 1 1 3 5 5 5 3 4 6 4 4 6 8 9 8 7 7 6 6 8 9 10 10 11 11 11 11 10 10 10 9 9 9 8 8 8 7 7 6 6 6 6 7 9
4 4 2 0 1 0 0 3 4 5 4 3 4 7 6 6 6 8 8 7 6 5 5 5 6 6 7 8 10 10 10 9 8 8 8 8 7 7 7 6 6 6 5 5 5 5 6 7 8
4 4 1 1 2 0 1 3 3 4 6 4 4 4 6 10 9 9 7 6 5 5 3 4 5 5 6 6 8 8 8 7 6 6 6 6 5 4 3 4 4 4 4 4 4 4 6 7 8
4 3 2 2 3 2 2 2 4 4 6 4 5 7 10 10 10 10 8 7 6 5 4 4 4 5 6 5 5 4 4 5 4 4 4 4 3 3 2 2 2 2 2 2 3 4 5 6 6
3 4 2 2 2 3 2 2 2 6 3 4 7 10 10 9 9 9 8 7 6 6 5 4 4 5 5 4 5 3 3 3 3 4 4 4 3 3 3 2 1 1 2 2 4 5 5 5 5
3 1 2 2 2 3 2 2 3 3 4 6 10 12 11 10 9 8 8 7 6 6 5 5 5 4 4 5 4 4 3 2 2 3 4 5 3 3 2 2 1 2 2 2 2 3 4 5 6
2 1 2 3 4 4 4 4 3 1 4 8 10 10 11 10 8 7 7 6 6 6 5 5 4 4 4 3 3 3 3 3 3 2 3 6 4 3 2 1 2 2 2 2 2 4 4 5 5
3 3 3 3 3 2 4 2 3 2 6 9 10 9 9 10 9 7 7 6 6 6 6 5 5 4 4 3 2 2 3 3 3 2 3 6 6 4 3 2 2 2 3 4 5 5 5 4 5
2 2 1 1 2 2 4 1 2 5 7 9 9 9 8 8 8 9 9 8 7 7 6 5 5 4 4 3 2 3 3 4 3 3 5 6 7 6 4 3 2 2 5 6 6 6 5 4 4
2 2 0 3 3 3 4 3 4 5 7 7 8 8 8 7 8 8 9 8 7 6 6 5 5 5 4 3 3 3 4 4 3 4 6 6 7 7 5 3 2 4 6 5 4 4 4 4 4
1 1 2 3 4 3 4 4 5 5 7 6 6 7 8 7 7 8 9 9 8 8 7 5 5 5 4 4 3 4 4 3 4 5 5 5 7 7 6 4 3 5 5 3 4 3 3 3 3
3 3 3 4 3 4 4 5 6 7 8 8 7 7 7 8 8 8 9 9 9 8 7 6 5 5 5 4 3 3 3 3 4 4 5 6 6 6 7 4 4 5 4 3 3 4 3 2 2
4 3 3 4 3 3 4 6 7 7 6 7 6 7 7 8 7 7 8 8 8 7 7 6 6 5 5 3 3 3 2 1 2 2 4 5 5 6 6 4 3 4 4 3 3 3 4 3 2
3 3 3 3 2 2 3 4 6 7 9 9 9 9 8 7 5 6 7 8 8 8 7 7 7 6 6 4 3 2 2 1 1 1 4 5 5 5 6 5 3 3 4 4 4 3 3 2 2
3 5 5 4 1 1 1 3 4 5 5 7 8 8 7 10 10 9 8 8 8 9 9 8 7 7 6 5 4 3 3 3 2 2 2 2 5 5 6 5 4 3 4 4 3 4 4 2 2
4 5 5 4 2 3 3 3 6 5 5 8 8 8 8 8 9 9 9 9 9 9 8 7 7 7 6 6 6 6 4 3 2 1 1 1 4 5 5 6 5 3 3 4 3 3 3 4 2
4 3 2 2 2 2 2 3 6 3 6 9 10 10 10 10 11 11 11 11 9 8 8 7 7 7 6 7 7 7 4 3 2 2 2 2 2 3 4 6 5 4 3 4 4 4 3 3 3
1 4 5 4 3 3 6 4 5 5 8 8 10 11 11 10 10 10 10 9 8 8 8 7 7 6 6 7 7 7 7 5 4 3 3 1 1 1 2 5 5 4 3 3 4 4 4 3 3
4 5 3 3 2 5 3 3 6 7 7 9 11 12 11 10 10 10 10 9 9 9 9 9 8 7 6 7 7 7 8 8 7 5 5 4 2 1 1 3 3 3 3 4 4 4 4 4 4
3 7 5 4 4 4 2 5 6 5 5 6 7 9 10 10 10 11 12 11 11 11 10 9 9 7 7 7 7 7 7 6 5 5 5 5 4 3 2 3 3 3 4 4 4 4 3 3 3
3 4 6 5 2 1 4 4 4 2 1 2 4 6 9 10 10 10 10 11 11 11 10 10 9 7 8 8 7 6 7 7 6 5 5 4 3 3 4 4 4 4 4 4 4 3 3 3 3
5 5 4 3 2 2 4 4 4 5 6 5 5 7 8 9 9 9 10 11 11 10 9 9 9 9 7 7 8 7 7 7 7 6 5 5 4 3 5 4 4 4 4 5 4 3 3 4 2
1 1 3 3 4 4 3 6 6 8 8 7 7 7 8 9 10 10 10 10 10 9 9 8 8 7 7 7 7 7 6 6 6 6 6 5 4 5 5 5 4 4 4 4 4 3 3 4 3
4 4 5 3 3 3 3 7 5 5 6 6 7 7 8 9 9 9 9 9 9 10 9 8 8 8 7 7 7 7 6 6 6 6 5 5 5 5 5 5 5 4 4 4 5 4 4 4 3
Wind_Direction
194 86 84 59 57 53 22 293 174 61 66 61 75 82 82 64 80 118 142 132 129 129 124 119 111 109 109 110 109 107 105 103 102 101 99 99 99 97 97 95 93 90 87 84 81 80 79 76 71
103 101 65 57 78 76 345 303 80 82 133 118 79 77 77 72 80 105 124 137 133 128 124 121 117 113 110 111 110 109 108 107 106 105 103 101 100 98 98 97 94 91 88 84 81 79 76 71 67
146 118 86 69 87 151 188 215 118 83 94 95 82 58 70 91 98 107 142 139 126 122 125 126 122 117 112 111 111 109 108 108 107 105 104 102 101 100 97 95 93 91 88 86 82 79 73 67 63
78 51 54 70 70 251 186 193 146 103 66 61 96 71 61 60 108 125 135 130 124 123 128 127 123 119 115 113 113 112 111 109 109 107 106 105 103 101 100 97 93 91 89 87 85 81 72 66 62
71 77 61 54 333 304 177 146 102 87 71 74 91 90 66 38 106 121 127 127 127 125 127 129 126 125 122 119 118 116 115 114 112 110 109 107 104 102 100 96 92 91 90 88 85 82 75 67 65
59 69 83 91 240 321 64 86 89 84 90 89 90 99 94 116 118 126 128 130 130 129 129 131 130 129 128 125 124 122 119 117 115 113 112 110 107 104 101 96 92 90 90 89 85 81 74 67 69
105 93 118 172 169 81 109 83 91 101 94 84 105 104 122 136 136 132 128 125 121 123 126 122 128 131 133 132 131 129 126 125 124 122 120 117 113 108 103 99 95 92 89 88 85 77 70 70 70
127 99 61 21 114 60 49 88 91 95 95 86 94 127 153 170 144 126 120 119 118 120 126 131 131 132 133 135 138 137 135 135 134 134 132 126 119 111 108 106 102 97 90 84 78 72 69 63 67
86 81 97 201 137 292 15 92 81 74 91 66 65 121 146 144 133 122 117 116 127 137 140 145 143 145 147 147 147 147 145 142 143 146 147 135 123 119 120 123 116 105 95 84 73 70 61 58 62
87 115 197 195 155 142 44 84 127 99 81 71 69 86 120 133 135 136 139 142 147 155 165 160 158 162 161 158 146 153 152 151 157 165 167 156 159 172 160 146 133 109 91 69 60 60 51 49 55
128 158 170 105 125 121 92 60 82 122 109 159 148 143 142 138 140 148 153 154 158 162 159 159 168 165 161 152 151 157 155 153 166 178 172 171 169 164 151 133 113 62 64 61 54 48 51 58 64
132 151 141 140 116 106 103 86 59 111 175 168 156 154 150 151 157 159 157 161 157 153 156 155 166 160 161 152 156 164 160 157 170 176 169 156 148 144 152 150 120 74 75 74 74 73 72 75 82
137 160 121 130 101 100 95 93 95 97 136 138 144 149 156 160 165 169 162 159 152 154 157 158 157 158 159 151 161 156 164 163 173 164 165 151 145 147 150 139 115 99 97 103 92 91 91 88 91
175 150 131 141 120 118 114 107 98 160 143 142 150 159 167 168 171 168 163 165 165 162 161 158 149 147 146 144 143 144 153 145 130 122 142 139 139 135 131 119 110 104 100 104 103 96 96 88 89
130 97 65 204 161 168 125 50 176 182 155 157 165 168 170 174 170 174 176 173 170 165 158 159 155 142 134 133 141 132 130 122 106 104 127 127 128 127 126 117 109 107 100 96 93 86 82 84 83
90 87 200 247 182 185 135 211 230 184 158 165 174 175 177 185 185 184 178 170 165 157 156 163 152 141 135 132 131 120 121 118 103 92 105 116 123 124 116 105 102 108 104 100 91 87 80 74 74
44 175 221 257 201 168 153 206 226 203 174 176 181 185 184 187 190 189 181 174 169 167 163 161 146 145 137 124 117 110 104 98 93 90 95 105 109 115 111 102 107 108 95 89 99 87 100 96 86
208 201 212 224 215 166 178 210 214 206 190 192 192 189 188 190 195 185 179 176 172 170 163 160 151 143 130 113 96 83 77 70 77 86 92 97 101 113 112 107 106 105 95 82 90 95 88 102 103
185 190 223 236 217 170 196 212 217 208 201 198 195 194 197 200 199 182 174 171 166 164 160 159 152 148 133 119 114 110 105 80 71 92 97 98 103 111 111 108 98 100 105 108 109 104 84 68 91
211 211 243 265 232 169 209 237 225 210 204 201 196 199 199 197 190 181 172 167 169 171 170 165 161 158 152 146 142 140 132 115 106 79 82 91 104 113 121 120 120 117 107 96 95 101 97 69 84
244 209 218 215 298 320 124 300 252 234 212 203 201 198 193 189 187 183 176 174 171 173 176 176 174 163 157 144 122 103 77 60 50 50 53 67 100 106 117 119 121 131 121 121 116 121 121 113 45
245 234 206 192 171 257 187 254 264 233 223 210 209 204 200 192 185 183 180 177 179 182 177 172 173 167 163 150 145 144 140 142 176 167 125 72 96 107 117 122 122 127 125 126 130 123 126 125 109
230 247 219 205 175 265 247 201 273 225 230 224 214 209 203 196 187 185 185 179 176 174 171 173 168 169 169 160 157 153 146 155 155 135 112 86 74 98 121 130 127 125 127 128 119 109 108 120 132
182 38 24 39 74 264 238 198 256 223 219 219 217 212 204 196 189 186 184 170 167 166 164 169 168 174 172 164 163 161 159 158 150 151 146 135 78 60 98 121 123 125 128 130 125 118 115 115 110
84 82 32 359 344 256 236 202 246 235 219 208 207 207 200 190 185 182 179 173 170 171 172 172 171 178 177 170 170 171 170 169 171 175 171 160 145 145 148 115 118 124 133 134 125 114 110 117 115
193 149 164 202 225 269 268 224 254 246 224 206 200 196 189 185 184 185 183 179 177 176 175 173 173 179 180 177 178 178 174 171 177 179 173 172 172 183 170 140 133 130 129 124 116 111 113 111 111
173 189 179 157 217 269 274 276 302 305 274 198 180 176 185 189 188 187 183 181 178 178 178 178 175 181 185 181 177 176 174 171 172 174 170 173 177 176 158 143 136 128 126 123 119 117 124 116 111
179 170 109 129 180 249 277 259 236 233 233 226 200 195 196 190 188 186 185 184 183 181 178 175 174 180 184 177 175 176 174 171 169 167 172 173 169 162 151 149 144 139 136 131 126 123 128 116 113
258 149 132 142 172 174 243 265 229 212 218 214 214 208 199 190 188 188 186 184 180 174 172 175 176 176 180 178 174 170 174 172 165 169 179 175 167 164 156 156 150 144 142 137 128 129 118 117 108
192 192 159 171 229 190 205 262 265 210 208 203 213 209 198 188 186 184 179 174 174 175 176 179 179 179 182 178 170 168 168 163 162 171 176 169 166 165 159 151 147 146 139 136 135 136 130 127 120
Height
1521 1521 1521 1522 1525 1532 1533 1527 1521 1519 1519 1520 1519 1520 1523 1528 1532 1539 1537 1535 1536 1537 1538 1538 1538 1538 1538 1539 1539 1539 1539 1540 1540 1541 1541 1541 1542 1542 1542 1542 1542 1543 1543 1543 1543 1542 1542 1542 1542
1522 1522 1523 1523 1530 1540 1535 1525 1522 1519 1520 1520 1521 1523 1525 1530 1532 1534 1534 1536 1537 1537 1538 1538 1539 1539 1539 1540 1540 1540 1541 1541 1541 1541 1542 1542 1543 1543 1543 1543 1543 1544 1544 1543 1543 1543 1543 1543 1543
1522 1522 1524 1525 1532 1538 1533 1524 1521 1519 1519 1519 1523 1526 1529 1532 1533 1534 1535 1536 1537 1538 1539 1539 1539 1540 1540 1541 1541 1541 1541 1542 1542 1542 1543 1543 1543 1544 1544 1544 1545 1545 1544 1544 1544 1544 1545 1545 1545
1522 1523 1525 1530 1532 1529 1525 1522 1520 1519 1520 1521 1523 1528 1531 1534 1534 1534 1536 1537 1538 1539 1539 1540 1540 1541 1541 1542 1542 1542 1542 1543 1543 1543 1544 1544 1544 1545 1545 1546 1546 1546 1545 1545 1545 1545 1546 1546 1546
1522 1523 1529 1534 1531 1525 1522 1521 1520 1520 1522 1524 1525 1530 1534 1535 1535 1536 1537 1538 1539 1539 1540 1541 1541 1542 1542 1543 1543 1543 1544 1544 1544 1545 1545 1545 1546 1546 1546 1547 1547 1547 1547 1546 1546 1547 1547 1547 1547
1523 1524 1535 1538 1531 1525 1522 1521 1521 1522 1524 1526 1527 1531 1535 1537 1536 1537 1538 1539 1540 1540 1541 1542 1542 1543 1543 1544 1544 1544 1545 1545 1546 1546 1546 1547 1547 1547 1548 1548 1548 1548 1548 1548 1548 1548 1548 1549 1549
1523 1527 1533 1533 1531 1527 1523 1522 1523 1524 1525 1527 1528 1531 1535 1537 1538 1538 1539 1540 1540 1541 1542 1542 1543 1544 1544 1545 1545 1546 1546 1546 1547 1548 1548 1548 1549 1549 1549 1549 1549 1549 1549 1549 1549 1550 1550 1550 1550
1522 1527 1532 1532 1531 1528 1524 1523 1524 1525 1527 1528 1528 1531 1534 1537 1538 1539 1540 1541 1542 1542 1543 1543 1544 1545 1545 1546 1546 1547 1547 1548 1548 1549 1549 1550 1550 1550 1551 1551 1551 1551 1551 1551 1551 1551 1552 1552 1552
1523 1531 1536 1532 1530 1528 1524 1524 1526 1527 1527 1528 1529 1530 1532 1535 1537 1539 1540 1542 1542 1543 1543 1544 1544 1545 1546 1546 1547 1548 1548 1549 1550 1550 1551 1551 1551 1552 1552 1553 1553 1553 1553 1553 1553 1553 1553 1553 1553
1523 1533 1530 1526 1525 1526 1525 1525 1526 1528 1528 1530 1531 1532 1534 1535 1537 1538 1540 1541 1542 1543 1544 1544 1545 1546 1547 1547 1548 1549 1549 1550 1550 1551 1552 1552 1552 1553 1554 1554 1554 1555 1555 1555 1555 1555 1555 1555 1555
1524 1527 1525 1524 1524 1524 1525 1526 1526 1527 1530 1530 1531 1532 1534 1536 1537 1538 1540 1541 1542 1543 1544 1545 1545 1546 1547 1548 1548 1549 1550 1551 1551 1552 1553 1553 1553 1554 1555 1555 1556 1556 1556 1556 1556 1556 1556 1556 1556
1524 1524 1524 1524 1524 1525 1526 1526 1527 1528 1529 1529 1530 1532 1534 1535 1537 1538 1539 1541 1542 1543 1544 1545 1546 1546 1547 1548 1549 1550 1551 1551 1552 1553 1553 1554 1554 1555 1555 1556 1557 1557 1557 1557 1557 1557 1557 1557 1557
1524 1524 1524 1524 1524 1525 1526 1527 1528 1529 1529 1530 1531 1532 1534 1535 1537 1538 1540 1541 1542 1543 1544 1545 1546 1547 1548 1549 1550 1551 1551 1552 1552 1553 1554 1554 1555 1556 1556 1557 1557 1558 1558 1558 1558 1558 1558 1558 1558
1523 1523 1524 1525 1525 1526 1527 1528 1529 1530 1529 1530 1531 1532 1534 1535 1536 1538 1539 1541 1542 1543 1545 1546 1547 1548 1549 1550 1550 1551 1552 1553 1553 1553 1554 1555 1556 1556 1557 1558 1558 1558 1559 1558 1558 1559 1559 1559 1559
1523 1525 1526 1526 1525 1526 1527 1531 1529 1529 1530 1530 1531 1533 1534 1535 1536 1537 1538 1540 1542 1543 1545 1546 1547 1548 1549 1550 1551 1552 1552 1553 1553 1554 1555 1556 1556 1557 1558 1558 1558 1559 1559 1559 1559 1560 1560 1560 1560
1525 1529 1533 1527 1525 1526 1531 1537 1529 1529 1529 1530 1531 1532 1533 1535 1535 1536 1538 1540 1541 1543 1544 1546 1547 1548 1549 1551 1551 1552 1553 1554 1554 1555 1555 1556 1557 1558 1558 1558 1559 1559 1560 1560 1560 1560 1560 1561 1561
1531 1536 1535 1529 1524 1525 1529 1533 1528 1528 1529 1529 1530 1531 1532 1533 1535 1536 1537 1539 1541 1542 1544 1545 1547 1548 1550 1551 1552 1553 1553 1554 1555 1555 1556 1557 1557 1558 1558 1559 1559 1560 1560 1560 1561 1561 1561 1561 1561
1536 1535 1533 1531 1524 1525 1528 1529 1527 1527 1527 1527 1528 1529 1530 1531 1533 1534 1536 1538 1540 1542 1544 1545 1546 1548 1549 1551 1552 1553 1554 1554 1555 1556 1556 1557 1558 1558 1559 1559 1559 1560 1560 1560 1561 1561 1562 1562 1562
1526 1529 1531 1528 1521 1524 1527 1528 1526 1525 1526 1526 1527 1527 1528 1529 1531 1533 1535 1537 1539 1541 1543 1545 1546 1547 1549 1550 1551 1552 1553 1554 1555 1556 1556 1557 1558 1558 1559 1559 1559 1560 1560 1560 1561 1561 1562 1562 1562
1524 1529 1530 1525 1520 1523 1527 1527 1524 1523 1523 1523 1524 1525 1526 1528 1530 1532 1534 1536 1538 1540 1542 1543 1545 1546 1548 1550 1551 1552 1553 1554 1555 1556 1556 1557 1558 1558 1558 1559 1559 1560 1560 1561 1561 1561 1561 1562 1562
1524 1527 1527 1527 1523 1522 1527 1531 1526 1521 1521 1522 1522 1522 1523 1525 1527 1529 1532 1534 1536 1538 1540 1542 1544 1546 1547 1549 1550 1551 1553 1553 1554 1555 1556 1557 1557 1558 1558 1559 1559 1560 1560 1560 1561 1561 1561 1562 1562
1526 1518 1519 1522 1529 1535 1530 1543 1528 1522 1520 1520 1520 1521 1521 1523 1525 1527 1529 1532 1534 1536 1539 1541 1542 1544 1546 1547 1549 1550 1551 1552 1553 1554 1555 1556 1557 1558 1558 1559 1559 1560 1560 1560 1560 1561 1561 1562 1562
1518 1514 1517 1520 1527 1534 1531 1539 1532 1522 1522 1518 1517 1517 1518 1520 1522 1524 1527 1529 1532 1535 1537 1539 1541 1543 1544 1546 1547 1549 1550 1552 1553 1554 1555 1556 1556 1557 1558 1558 1559 1559 1559 1560 1560 1561 1561 1561 1562
1513 1517 1521 1526 1533 1543 1532 1536 1533 1523 1517 1513 1512 1513 1515 1517 1519 1522 1525 1527 1530 1533 1535 1537 1539 1541 1543 1544 1546 1547 1549 1550 1552 1553 1554 1555 1555 1556 1557 1558 1558 1559 1559 1559 1560 1560 1561 1561 1561
1516 1531 1544 1546 1550 1544 1527 1530 1526 1511 1507 1506 1507 1509 1511 1513 1516 1519 1522 1525 1527 1530 1533 1535 1537 1539 1541 1543 1544 1546 1548 1549 1550 1551 1552 1553 1554 1555 1556 1557 1558 1558 1559 1559 1560 1560 1560 1561 1561
1518 1527 1544 1551 1551 1542 1528 1529 1518 1505 1503 1502 1503 1504 1507 1510 1513 1516 1518 1521 1524 1527 1530 1532 1535 1537 1539 1541 1543 1545 1546 1548 1549 1550 1551 1552 1553 1554 1555 1556 1557 1558 1558 1559 1559 1560 1560 1561 1561
1517 1522 1523 1535 1536 1541 1534 1522 1511 1504 1503 1502 1503 1504 1506 1508 1510 1513 1516 1519 1521 1524 1527 1530 1533 1535 1537 1539 1541 1543 1545 1546 1548 1549 1550 1551 1552 1553 1554 1555 1556 1557 1557 1558 1559 1559 1560 1560 1560
1510 1515 1526 1534 1542 1546 1536 1527 1522 1510 1505 1502 1502 1502 1503 1505 1507 1510 1513 1516 1519 1522 1525 1528 1531 1533 1535 1538 1539 1541 1543 1544 1546 1548 1549 1550 1551 1552 1553 1554 1555 1556 1557 1558 1558 1559 1559 1559 1560
1513 1515 1521 1530 1534 1542 1543 1531 1505 1503 1501 1500 1500 1500 1501 1503 1504 1507 1510 1513 1516 1519 1523 1526 1528 1531 1534 1536 1538 1539 1541 1543 1544 1546 1547 1549 1550 1551 1552 1553 1554 1555 1556 1557 1557 1558 1558 1559 1559
1508 1512 1519 1531 1532 1532 1536 1527 1497 1497 1497 1497 1497 1498 1499 1500 1502 1504 1507 1511 1514 1517 1520 1523 1526 1529 1531 1534 1535 1537 1539 1541 1542 1544 1546 1548 1549 1550 1551 1552 1553 1554 1555 1556 1557 1557 1558 1558 1558